World > North America > United States > Virginia > Franconia

Hourly Franconia, VA Regional Weather

Feedback E-mail the Weather

Quick WX

Franconia, VA Weather Maps

°F °C°F °C
Franconia Weather Map
UTC Time: 8/12/2022, 02:28
Your Time:

Franconia, VA Regional Weather

Expires:202208120300;;943537
ASUS41 KLWX 120216
RWRLWX

REGIONAL WEATHER ROUNDUP LEGACY
NATIONAL WEATHER SERVICE BALTIMORE MD/WASHINGTON DC
1000 PM EDT THU AUG 11 2022

Note: "FAIR" indicates few or no clouds below 12,000 feet
with no significant weather and/or obstructions to visibility.
 TC=TEMPERATURE CELSIUS

 * =Non NWS site. Station does not report precipitation (e.g. rain,
    snow, etc.), thunder, or fog.


DCZ001-MDZ009-015-VAZ040>042-051-053>054-120300-
WASHINGTON METRO
  
CITY           SKY/WX    TMP DP  RH WIND       PRES   REMARKS
WASHINGTON NAT PTCLDY    82  63  52 W5        29.95R                  
DULLES         PTCLDY    78  65  63 NW8       29.97R                  
ANDREWS AFB    PTCLDY    78  64  61 W6        29.93R                  
FT BELVOIR     PTCLDY    72  65  79 CALM      29.94R                  
QUANTICO       CLEAR     74  68  81 W7        29.96S                  
COLLEGE PARK*  PTCLDY    74  68  81 CALM      29.95S                  
LEESBURG*      CLOUDY    77  64  65 N12G17    30.00R                  
MANASSAS*      PTCLDY    72  68  87 CALM      29.97R                  
GAITHERSBURG*  PTCLDY    73  66  78 MISG      29.99R                  

$$


SKY/WX - Weather  TMP - Temperature  DP - Dew Point  RH - Humidity
WIND - Wind Direction/Speed PRES - Barometric Pressure VSB - Visibility
WCI - Wind Chill Index E13G22 Wind - East Wind 13 mph/Gusts of 22 mph

Trending Headlines

Franconia Radar Loop



Franconia Quick Facts


National Two Day Weather Forecast


E-mail the Franconia Weather Forecast

Voice your opinion or tell us about page issues...